Change the Weather History Date:

Monday, August 12, 2013

  Actual Average Record
Temperature  
Mean Temperature 70 °F -  
Max Temperature 80 °F 83 °F 95 °F (1988)
Min Temperature 62 °F 58 °F 45 °F (1982)
Cooling Degree Days 6    
Growing Degree Days 20 (Base 50)    
Moisture  
Dew Point 60 °F    
Average Humidity 73    
Maximum Humidity 97    
Minimum Humidity 37    
Precipitation  
Precipitation 0.01 in - - ()
Sea Level Pressure  
Sea Level Pressure 29.98 in    
Wind  
Wind Speed 3 mph (NW)    
Max Wind Speed 15 mph    
Max Gust Speed 17 mph    
Visibility 9 miles    
Events      
Averages and records for this station are not official NWS values.
T = Trace of Precipitation, MM = Missing Value Source: NWS Daily Summary

Daily Weather History Graph

Daily Weather History Graph

Search for Another Location

Airport or City:

Trip Planner

Search our weather history database for the weather conditions in past years. The results will help you decide how hot, cold, wet, or windy it might be!

Date:

Astronomy

Aug. 12, 2013 Rise Set
Actual Time 6:07 AM CDT 8:10 PM CDT
Civil Twilight 5:36 AM CDT 8:41 PM CDT
Nautical Twilight 4:58 AM CDT 9:19 PM CDT
Astronomical Twilight 4:16 AM CDT 10:00 PM CDT
Moon 12:09 PM CDT (8/12) 10:52 PM CDT (8/12)
Length of Visible Light 15h 05m
Length of Day
14h 03m
Waxing Crescent, 31% of the Moon is Illuminated
Aug 12
Waxing Crescent
Aug 14
First Quarter
Aug 20
Full
Aug 28
Last Quarter
Sep 5
New

Hourly Weather History & Observations

Time (CDT) Temp. Dew Point Humidity Pressure Visibility Wind Dir Wind Speed Gust Speed Precip Events Conditions
2:15 AM 64.0 °F 62.8 °F 96% 30.01 in 10.0 mi Calm Calm - N/A   Overcast
2:35 AM 63.9 °F 62.6 °F 96% 30.01 in 10.0 mi Calm Calm - N/A   Mostly Cloudy
2:55 AM 63.5 °F 62.2 °F 96% 30.00 in 10.0 mi Calm Calm - N/A   Scattered Clouds
3:15 AM 63.3 °F 61.9 °F 95% 30.00 in 7.0 mi Calm Calm - N/A   Scattered Clouds
3:35 AM 62.8 °F 61.7 °F 96% 30.00 in 7.0 mi Calm Calm - N/A   Mostly Cloudy
3:55 AM 63.0 °F 61.7 °F 96% 30.00 in 4.0 mi Calm Calm - N/A   Overcast
4:15 AM 63.5 °F 62.2 °F 96% 29.99 in 2.5 mi Calm Calm - N/A   Overcast
4:35 AM 63.5 °F 62.4 °F 96% 29.99 in 7.0 mi Calm Calm - N/A   Overcast
4:55 AM 63.5 °F 62.6 °F 97% 29.98 in 10.0 mi Calm Calm - N/A   Overcast
5:15 AM 63.7 °F 62.6 °F 96% 29.98 in 10.0 mi Calm Calm - N/A   Overcast
5:35 AM 64.2 °F 62.8 °F 95% 29.98 in 10.0 mi Calm Calm - N/A   Overcast
5:55 AM 64.6 °F 63.3 °F 96% 29.99 in 7.0 mi WNW 4.6 mph - N/A   Overcast
6:15 AM 64.9 °F 63.5 °F 95% 29.99 in 5.0 mi NNW 4.6 mph - N/A   Overcast
6:35 AM 64.9 °F 63.5 °F 95% 29.99 in 3.0 mi NW 4.6 mph - N/A   Overcast
6:55 AM 65.3 °F 63.9 °F 95% 29.99 in 3.0 mi NNW 3.5 mph - N/A   Overcast
7:15 AM 65.8 °F 64.2 °F 94% 29.99 in 4.0 mi Calm Calm - N/A   Overcast
7:35 AM 66.2 °F 64.4 °F 94% 29.98 in 5.0 mi NW 4.6 mph - N/A   Mostly Cloudy
7:55 AM 66.2 °F 64.4 °F 94% 29.99 in 5.0 mi NW 4.6 mph - N/A   Mostly Cloudy
8:15 AM 66.7 °F 64.8 °F 93% 29.99 in 5.0 mi NW 4.6 mph - N/A   Overcast
8:35 AM 67.1 °F 64.4 °F 91% 29.99 in 10.0 mi NW 4.6 mph - N/A   Overcast
8:55 AM 67.3 °F 64.4 °F 90% 29.99 in 10.0 mi West 3.5 mph - N/A   Overcast
9:15 AM 68.2 °F 64.4 °F 88% 29.99 in 10.0 mi NW 5.8 mph - N/A   Overcast
9:35 AM 68.9 °F 64.0 °F 84% 29.99 in 10.0 mi NNW 6.9 mph - N/A   Mostly Cloudy
9:55 AM 70.0 °F 64.4 °F 82% 30.00 in 10.0 mi NNW 8.1 mph - N/A   Mostly Cloudy
10:15 AM 70.9 °F 64.0 °F 79% 30.00 in 10.0 mi NW 5.8 mph - 0.01 in   Overcast
10:35 AM 71.1 °F 64.2 °F 79% 30.00 in 10.0 mi NW 5.8 mph - 0.01 in   Mostly Cloudy
10:55 AM 71.2 °F 64.0 °F 78% 30.00 in 10.0 mi NW 3.5 mph - 0.01 in   Mostly Cloudy
11:15 AM 73.2 °F 64.0 °F 73% 30.00 in 10.0 mi West 3.5 mph - N/A   Scattered Clouds
11:35 AM 73.8 °F 63.9 °F 71% 30.00 in 10.0 mi NNW 3.5 mph - N/A   Mostly Cloudy
11:55 AM 75.2 °F 63.1 °F 66% 30.00 in 10.0 mi NW 4.6 mph - N/A   Scattered Clouds
12:15 PM 75.0 °F 63.3 °F 67% 29.99 in 10.0 mi WNW 10.4 mph - N/A   Scattered Clouds
12:35 PM 75.7 °F 63.5 °F 66% 29.99 in 10.0 mi NW 5.8 mph - N/A   Scattered Clouds
12:55 PM 75.6 °F 62.1 °F 63% 29.98 in 10.0 mi NNW 6.9 mph - N/A   Scattered Clouds
1:15 PM 77.0 °F 62.8 °F 61% 29.98 in 10.0 mi NW 9.2 mph - N/A   Scattered Clouds
1:35 PM 76.1 °F 62.8 °F 63% 29.98 in 10.0 mi NNW 9.2 mph - N/A   Scattered Clouds
1:55 PM 77.0 °F 63.0 °F 62% 29.98 in 10.0 mi WNW 8.1 mph 17.3 mph N/A   Scattered Clouds
2:15 PM 77.7 °F 62.2 °F 59% 29.97 in 10.0 mi NNW 6.9 mph - N/A   Scattered Clouds
2:35 PM 78.8 °F 57.7 °F 48% 29.97 in 10.0 mi NNW 11.5 mph - N/A   Clear
2:55 PM 78.6 °F 56.7 °F 47% 29.96 in 10.0 mi NW 8.1 mph - N/A   Clear
3:15 PM 79.0 °F 57.4 °F 47% 29.96 in 10.0 mi NW 9.2 mph 16.1 mph N/A   Clear
3:35 PM 79.2 °F 58.1 °F 48% 29.96 in 10.0 mi WNW 11.5 mph 16.1 mph N/A   Clear
3:55 PM 79.9 °F 54.3 °F 41% 29.95 in 10.0 mi North 9.2 mph 16.1 mph N/A   Scattered Clouds
4:15 PM 79.7 °F 52.0 °F 38% 29.95 in 10.0 mi NW 11.5 mph - N/A   Clear
4:35 PM 79.7 °F 54.3 °F 41% 29.95 in 10.0 mi NNW 12.7 mph 17.3 mph N/A   Clear
4:55 PM 79.0 °F 52.3 °F 39% 29.95 in 10.0 mi NW 8.1 mph - N/A   Clear
5:15 PM 79.0 °F 50.4 °F 37% 29.95 in 10.0 mi NW 15.0 mph - N/A   Clear
5:35 PM 78.6 °F 53.6 °F 42% 29.96 in 10.0 mi WNW 9.2 mph - N/A   Clear
5:55 PM 77.9 °F 54.0 °F 43% 29.96 in 10.0 mi NW 10.4 mph - N/A   Clear
6:15 PM 77.4 °F 55.9 °F 47% 29.96 in 10.0 mi North 9.2 mph - N/A   Clear
6:35 PM 76.6 °F 57.0 °F 51% 29.96 in 10.0 mi NNW 8.1 mph - N/A   Clear
6:55 PM 76.1 °F 57.2 °F 52% 29.96 in 10.0 mi NW 6.9 mph - N/A   Clear
7:15 PM 74.8 °F 56.1 °F 52% 29.96 in 10.0 mi NW 6.9 mph - N/A   Clear
7:35 PM 74.3 °F 56.7 °F 54% 29.96 in 10.0 mi NNW 6.9 mph - N/A   Clear
7:55 PM 72.7 °F 58.5 °F 61% 29.97 in 10.0 mi North 3.5 mph - N/A   Clear
8:15 PM 71.6 °F 58.6 °F 64% 29.97 in 10.0 mi NNW 3.5 mph - N/A   Clear
8:35 PM 70.3 °F 58.6 °F 66% 29.98 in 10.0 mi NW 3.5 mph - N/A   Clear
8:55 PM 68.7 °F 58.3 °F 69% 29.99 in 10.0 mi Calm Calm - N/A   Clear
9:15 PM 67.3 °F 59.2 °F 75% 30.00 in 10.0 mi NW 3.5 mph - N/A   Clear
9:35 PM 66.7 °F 60.1 °F 79% 30.00 in 10.0 mi Calm Calm - N/A   Clear
9:55 PM 65.7 °F 59.9 °F 82% 30.01 in 10.0 mi Calm Calm - N/A   Clear
10:15 PM 64.9 °F 59.0 °F 81% 30.01 in 10.0 mi Calm Calm - N/A   Clear
10:35 PM 64.4 °F 57.7 °F 79% 30.01 in 10.0 mi Calm Calm - N/A   Clear
10:55 PM 64.4 °F 58.8 °F 82% 30.01 in 10.0 mi Calm Calm - N/A   Clear
11:15 PM 63.3 °F 58.6 °F 85% 30.02 in 10.0 mi Calm Calm - N/A   Clear
11:55 PM 62.8 °F 57.9 °F 84% 30.03 in 10.0 mi WNW 4.6 mph - N/A   Clear